Location: Borealis Mine
(38.3824°N, 118.7610°W)
Time: 17:05:41
(UTC+00:00)

USA 32 - Pass Details

Date: 18 September 2020
Orbit: 778 x 782 km, 85.0° (Epoch: 27 September)

Event Time Altitude Azimuth Distance (km) Brightness Sun altitude
Rises 12:15:23 0° 358° (N) 3,272 7.4 -17.1°
Reaches altitude 10° 12:17:46 10° 0° (N) 2,341 6.7 -16.7°
Maximum altitude 12:23:00 71° 85° (E) 825 4.3 -15.7°
Drops below altitude 10° 12:28:13 10° 169° (S) 2,328 6.5 -14.7°
Sets 12:30:34 0° 172° (S) 3,252 7.2 -14.2°
